Previsão horária em Aba

Hoje, 15 Janeiro, Sexta-feira

Tempo Temperatura Precipitação Vento Pressão Humidade
00:00 +28°C° 0 mm 2 m/s 752 mmHg 79%
01:00 +27°C° 0 mm 1 m/s 751 mmHg 80%
02:00 +27°C° 0 mm 1 m/s 751 mmHg 82%
03:00 +25°C° 0 mm 0 m/s 751 mmHg 83%
04:00 +25°C° 0.1 mm 0 m/s 751 mmHg 84%
05:00 +25°C° 0.1 mm 0 m/s 752 mmHg 85%
06:00 +25°C° 0 mm 0 m/s 752 mmHg 86%
07:00 +29°C° 0 mm 1 m/s 752 mmHg 77%
08:00 +30°C° 0 mm 1 m/s 753 mmHg 68%
09:00 +32°C° 0 mm 1 m/s 753 mmHg 59%
10:00 +34°C° 0 mm 1 m/s 752 mmHg 51%
11:00 +36°C° 0 mm 1 m/s 752 mmHg 43%
12:00 +37°C° 0 mm 1 m/s 751 mmHg 37%
13:00 +37°C° 0.1 mm 2 m/s 751 mmHg 40%
14:00 +36°C° 0.1 mm 3 m/s 750 mmHg 44%
15:00 +35°C° 0.1 mm 4 m/s 749 mmHg 48%
16:00 +34°C° 0 mm 4 m/s 750 mmHg 55%
17:00 +32°C° 0 mm 4 m/s 750 mmHg 62%
18:00 +30°C° 0 mm 3 m/s 750 mmHg 69%
19:00 +30°C° 0 mm 3 m/s 751 mmHg 71%
20:00 +29°C° 0 mm 3 m/s 751 mmHg 74%
21:00 +29°C° 0 mm 3 m/s 752 mmHg 77%
22:00 +28°C° 0 mm 2 m/s 752 mmHg 79%
23:00 +28°C° 0 mm 2 m/s 751 mmHg 81%

Amanhã, 16 Janeiro, Sábado

Tempo Temperatura Precipitação Vento Pressão Humidade
00:00 +28°C° 0 mm 2 m/s 751 mmHg 83%
01:00 +27°C° 0 mm 1 m/s 751 mmHg 85%
02:00 +27°C° 0 mm 1 m/s 751 mmHg 86%
03:00 +27°C° 0 mm 1 m/s 751 mmHg 88%
04:00 +27°C° 0 mm 1 m/s 751 mmHg 89%
05:00 +26°C° 0 mm 1 m/s 751 mmHg 90%
06:00 +26°C° 0 mm 1 m/s 751 mmHg 90%
07:00 +28°C° 0 mm 1 m/s 752 mmHg 81%
08:00 +30°C° 0 mm 1 m/s 752 mmHg 71%
09:00 +32°C° 0 mm 1 m/s 753 mmHg 62%
10:00 +33°C° 0.2 mm 1 m/s 752 mmHg 58%
11:00 +34°C° 0.2 mm 1 m/s 751 mmHg 53%
12:00 +33°C° 0.2 mm 0 m/s 751 mmHg 49%
13:00 +35°C° 0.4 mm 1 m/s 750 mmHg 48%
14:00 +35°C° 0.4 mm 1 m/s 750 mmHg 47%
15:00 +34°C° 0.4 mm 1 m/s 749 mmHg 46%
16:00 +34°C° 0 mm 2 m/s 749 mmHg 52%
17:00 +33°C° 0 mm 3 m/s 750 mmHg 58%
18:00 +30°C° 0 mm 3 m/s 750 mmHg 64%
19:00 +30°C° 0 mm 3 m/s 750 mmHg 68%
20:00 +29°C° 0 mm 3 m/s 751 mmHg 72%
21:00 +28°C° 0 mm 3 m/s 752 mmHg 76%
22:00 +28°C° 0 mm 3 m/s 751 mmHg 77%
23:00 +28°C° 0 mm 2 m/s 751 mmHg 79%

Depois de amanhã, 17 Janeiro, Domingo

Tempo Temperatura Precipitação Vento Pressão Humidade
00:00 +27°C° 0 mm 2 m/s 751 mmHg 81%
01:00 +27°C° 0 mm 2 m/s 751 mmHg 83%
02:00 +27°C° 0 mm 1 m/s 751 mmHg 85%
03:00 +27°C° 0 mm 1 m/s 750 mmHg 87%
04:00 +26°C° 0 mm 1 m/s 751 mmHg 88%
05:00 +24°C° 0 mm 0 m/s 751 mmHg 89%
06:00 +24°C° 0 mm 0 m/s 752 mmHg 90%
07:00 +28°C° 0 mm 1 m/s 752 mmHg 81%
08:00 +30°C° 0 mm 1 m/s 752 mmHg 72%
09:00 +31°C° 0 mm 2 m/s 753 mmHg 64%
10:00 +32°C° 0.1 mm 1 m/s 752 mmHg 62%
11:00 +32°C° 0.1 mm 1 m/s 752 mmHg 60%
12:00 +31°C° 0.1 mm 0 m/s 751 mmHg 58%
13:00 +33°C° 0.2 mm 1 m/s 751 mmHg 56%
14:00 +34°C° 0.2 mm 2 m/s 750 mmHg 53%
15:00 +35°C° 0.2 mm 2 m/s 750 mmHg 50%
16:00 +34°C° 0 mm 2 m/s 750 mmHg 56%
17:00 +31°C° 0 mm 3 m/s 750 mmHg 61%
18:00 +30°C° 0 mm 3 m/s 750 mmHg 66%
19:00 +30°C° 0 mm 3 m/s 751 mmHg 70%
20:00 +29°C° 0 mm 3 m/s 751 mmHg 74%
21:00 +28°C° 0 mm 3 m/s 752 mmHg 78%
22:00 +28°C° 0 mm 3 m/s 752 mmHg 79%
23:00 +28°C° 0 mm 2 m/s 751 mmHg 81%

18 Janeiro, Segunda-feira

Tempo Temperatura Precipitação Vento Pressão Humidade
00:00 +27°C° 0 mm 2 m/s 751 mmHg 83%
01:00 +27°C° 0 mm 2 m/s 751 mmHg 84%
02:00 +27°C° 0 mm 1 m/s 751 mmHg 86%
03:00 +26°C° 0 mm 1 m/s 751 mmHg 88%
04:00 +26°C° 0 mm 1 m/s 751 mmHg 89%
05:00 +26°C° 0 mm 1 m/s 751 mmHg 90%
06:00 +24°C° 0 mm 0 m/s 752 mmHg 91%
07:00 +28°C° 0.1 mm 1 m/s 752 mmHg 84%
08:00 +29°C° 0.1 mm 1 m/s 753 mmHg 76%
09:00 +30°C° 0.1 mm 2 m/s 753 mmHg 69%
10:00 +32°C° 0.5 mm 1 m/s 753 mmHg 63%
11:00 +33°C° 0.5 mm 1 m/s 752 mmHg 56%
12:00 +35°C° 0.5 mm 1 m/s 752 mmHg 50%
13:00 +36°C° 0.4 mm 2 m/s 751 mmHg 50%
14:00 +35°C° 0.4 mm 2 m/s 751 mmHg 50%
15:00 +35°C° 0.4 mm 3 m/s 750 mmHg 50%
16:00 +34°C° 0 mm 3 m/s 750 mmHg 56%
17:00 +31°C° 0 mm 3 m/s 751 mmHg 61%
18:00 +30°C° 0 mm 3 m/s 751 mmHg 67%
19:00 +29°C° 0 mm 3 m/s 751 mmHg 70%
20:00 +29°C° 0 mm 3 m/s 752 mmHg 74%
21:00 +28°C° 0 mm 3 m/s 753 mmHg 77%
22:00 +28°C° 0 mm 3 m/s 752 mmHg 79%
23:00 +28°C° 0 mm 2 m/s 752 mmHg 80%

19 Janeiro, Terça-feira

Tempo Temperatura Precipitação Vento Pressão Humidade
00:00 +27°C° 0 mm 2 m/s 752 mmHg 82%
01:00 +27°C° 0 mm 2 m/s 752 mmHg 84%
02:00 +27°C° 0 mm 1 m/s 752 mmHg 86%
03:00 +26°C° 0 mm 1 m/s 751 mmHg 88%
04:00 +26°C° 0 mm 1 m/s 752 mmHg 89%
05:00 +24°C° 0 mm 0 m/s 752 mmHg 90%
06:00 +24°C° 0 mm 0 m/s 752 mmHg 91%
07:00 +26°C° 0.2 mm 0 m/s 753 mmHg 81%
08:00 +28°C° 0.2 mm 0 m/s 753 mmHg 71%
09:00 +32°C° 0.2 mm 1 m/s 754 mmHg 61%
10:00 +33°C° 0.1 mm 1 m/s 753 mmHg 57%
11:00 +34°C° 0.1 mm 1 m/s 752 mmHg 52%
12:00 +35°C° 0.1 mm 1 m/s 752 mmHg 47%
13:00 +35°C° 0.1 mm 1 m/s 751 mmHg 47%
14:00 +36°C° 0.1 mm 2 m/s 751 mmHg 47%
15:00 +35°C° 0.1 mm 2 m/s 750 mmHg 46%
16:00 +34°C° 0 mm 3 m/s 750 mmHg 53%
17:00 +31°C° 0 mm 3 m/s 751 mmHg 59%
18:00 +30°C° 0 mm 4 m/s 751 mmHg 66%
19:00 +29°C° 0 mm 3 m/s 751 mmHg 69%
20:00 +29°C° 0 mm 3 m/s 752 mmHg 73%
21:00 +28°C° 0 mm 3 m/s 752 mmHg 76%
22:00 +28°C° 0 mm 2 m/s 752 mmHg 78%
23:00 +27°C° 0 mm 2 m/s 752 mmHg 80%

20 Janeiro, Quarta-feira

Tempo Temperatura Precipitação Vento Pressão Humidade
00:00 +27°C° 0 mm 2 m/s 752 mmHg 82%
01:00 +27°C° 0 mm 1 m/s 752 mmHg 84%
02:00 +27°C° 0 mm 1 m/s 752 mmHg 86%
03:00 +26°C° 0 mm 1 m/s 752 mmHg 88%
04:00 +26°C° 0 mm 1 m/s 752 mmHg 89%
05:00 +26°C° 0 mm 1 m/s 753 mmHg 90%
06:00 +24°C° 0 mm 0 m/s 753 mmHg 91%
07:00 +28°C° 0.2 mm 1 m/s 753 mmHg 81%
08:00 +30°C° 0.2 mm 1 m/s 754 mmHg 71%
09:00 +32°C° 0.2 mm 1 m/s 754 mmHg 60%
10:00 +33°C° 0 mm 1 m/s 754 mmHg 54%
11:00 +35°C° 0 mm 1 m/s 753 mmHg 48%
12:00 +36°C° 0 mm 1 m/s 752 mmHg 41%
13:00 +36°C° 0 mm 1 m/s 752 mmHg 40%
14:00 +36°C° 0 mm 1 m/s 751 mmHg 38%
15:00 +37°C° 0 mm 2 m/s 750 mmHg 37%
16:00 +35°C° 0 mm 2 m/s 750 mmHg 46%
17:00 +33°C° 0 mm 3 m/s 751 mmHg 55%
18:00 +30°C° 0 mm 4 m/s 751 mmHg 65%
19:00 +30°C° 0 mm 4 m/s 751 mmHg 69%
20:00 +29°C° 0 mm 3 m/s 752 mmHg 72%
21:00 +28°C° 0 mm 3 m/s 752 mmHg 76%
22:00 +28°C° 0 mm 2 m/s 752 mmHg 78%
23:00 +27°C° 0 mm 2 m/s 752 mmHg 80%
Mostrar mais